Location: Unspecified
(44.0704°N, 88.6889°W)
Time: 11:02:37
(UTC+02:00)

Vanguard 2 Rocket - Pass Details

Date: 08 August 2020
Orbit: 554 x 3326 km, 32.9° (Epoch: 22 September)

Event Time Altitude Azimuth Distance (km) Brightness Sun altitude
Rises 08:11:47 0° 273° (W) 5,720 11.0 -29.9°
Reaches altitude 10° 08:15:53 10° 262° (W) 5,090 10.6 -29.8°
Enters shadow 08:24:31 27° 229° (SW) 4,470 9.9 -29.7°
